Preisvergleich
Suchen Sie bei den großen Preisvergleich Portalen gleichzeitig! 


Sitemap67

6.9.2026 2:05

In den Sitemaps finden Sie im Meta-Preisvergleich häufig gefragte Suchworte sortiert nach der Anzahl der Anfragen.

Anfragen Suchwort Ergebnisse Datum Quellen
1panasonic kx tg6821gs412026-08-03 00:07:0129
1asus geforce rtx 50805032026-08-03 00:07:0129
1apple mqgh2zm a452026-08-03 00:07:0129
1plexiglas 35722026-08-03 00:07:0129
1plexiglas 3 rest292026-08-03 00:07:0127
1oral b zahnbürste io serie 36382026-08-03 00:07:0129
1oral b elektrische zahnbürste io serie 35982026-08-03 00:07:0129
1elektrische zahnbürste io serie 35862026-08-03 00:07:0129
1shimano ultegra cs-r8000 11-fach1872026-08-03 00:07:0129
1elektrische zahnbürste oral b io serie 35392026-08-03 00:07:0129
1bmw battery comfort indicator eyelet92026-08-03 00:07:0128
1camolech 900 w182026-08-03 00:07:0128
1ösenschraube edelstahl m52852026-08-03 00:07:0128
1gourmetmaxx heißluftfritteuse xxl 12 liter212026-08-03 00:07:0129
1garderobenhaken edelstahl 93 mm92026-08-03 00:07:0128
1luxula led-unterbauleuchte cct662026-08-03 00:07:0128
1beko bdfn26430s362026-08-03 00:07:0127
1beko bdfn 26430 s262026-08-03 00:07:0128
1welly glk222026-08-03 00:07:0126
1gedore 6368510262026-08-03 00:07:0128
1taylor swift handtuch132026-08-03 00:07:0127
1touratech zumo xt2162026-08-03 00:07:0129
1sqrc292026-08-03 00:07:0127
1acronis true image 2025 3 pc252026-08-03 00:07:0129
1slwf-0182026-08-03 00:07:0126
1tomy toomies barista badespielzeug e7354792026-08-03 00:07:0129
1chs-3an212026-08-03 00:07:0128
1ein ort, der bleibt sandra lüpkes232026-08-03 00:07:0128
1schiesser herren 3 pack boxershorts bio baumwolle multipack812026-08-03 00:07:0129
1philips x-tremevision pro150 hb4 9006xvpb1102026-08-03 00:07:0129
1staubsauger dreame 30 pro1152026-08-03 00:07:0129
1insektenschutz rahmentür672026-08-03 00:07:0127
1logitech lift neu1742026-08-03 00:07:0128
1riemtex classic882026-08-03 00:07:0129
1märklin 03782592026-08-03 00:07:0128
1wash dry fußmatte navy 40x60cm112026-08-03 00:07:0128
1cekon 16a572026-08-03 00:07:0128
1profuel vitamin b komplex forte132026-08-03 00:07:0128
1nilfisk 8m rohrreinigungsschlauch332026-08-03 00:07:0128
1doppelherz vitamin k2 d32132026-08-03 00:07:0129
1intenso speed line 8 gb892026-08-03 00:07:0129
1200 bomacorin 450222026-08-03 00:07:0129
1iphone 17 pro blau4852026-08-03 00:07:0128
1shimano tlfc32 y-1300921082026-08-03 00:07:0129
1oral-b aufsteckbürsten pro crossaction, weiß, 12 stück112026-08-03 00:07:0129
1sansibar spannbettlaken3902026-08-03 00:07:0126
1alta labs route 1092026-08-03 00:07:0128
1tiefengrund 595122026-08-03 00:07:0129
1ei630irf342026-08-03 00:07:0127
1türdichtung bmw e90 vorne links882026-08-03 00:07:0128
1überspannungsableiter typ 2, 4-pol102026-08-03 00:07:0129
11k06154241342026-08-03 00:07:0127
1epson expression photo xp-980882026-08-03 00:07:0129
1epson expression xp-980922026-08-03 00:07:0129
1epson xp-9801272026-08-03 00:07:0129
1epson expression 980922026-08-03 00:07:0129
151727247258342026-08-03 00:07:0126
1ecoflow stream ultra x 3.84 kwh1402026-08-03 00:07:0129
1ecoflow stream 3.84 kwh1692026-08-03 00:07:0129
1gak überspannungsschutz dc typ ii872026-08-03 00:07:0128
1schiesser supermini blau2632026-08-03 00:07:0128
1san marzano f negroamaro salento igp 2021102026-08-03 00:07:0126
1bmw e90 m verkleidung hinten162026-08-03 00:07:0128
1dr. nowzaradan diätplan kochbuch 36592026-08-03 00:07:0129
1ventilspiel einstellwerkzeug set buzzetti562026-08-03 00:07:0129
1ventilspiel einstellwerkzeug set roller482026-08-03 00:07:0128
1tektro hd-e350372026-08-03 00:07:0129
1display für bmw e902912026-08-03 00:07:0129
1samsung galaxy tab a9 plus 11 128gb 8gb82026-08-03 00:07:0129
1febi bilstein 21909 fett172026-08-03 00:07:0129
1growatt batteriespeicher apx 5.0p-b1172026-08-03 00:07:0129
1batteriespeicher 5 kwh1952026-08-03 00:07:0128
1viltrox 35 mm f 1.2 lab572026-08-03 00:07:0129
1philips sonicare w 3 ersatzzahnbürsten332026-08-03 00:07:0129
1gebol schutzbrille reader232026-08-03 00:07:0128
16870c-0852a552026-08-03 00:07:0128
1flexibles leerrohr m321962026-08-03 00:07:0128
1nike sb alleyoop4992026-08-03 00:07:0129
1amazon fire tv stick 4k max neueste generation112026-08-03 00:07:0129
1nike sb alleyoop 45452026-08-03 00:07:0129
1gear flon fett92026-08-03 00:07:0129
1continental grand prix 5000 faltreifen - 30-622212026-08-03 00:07:0128
1mega darth vader592026-08-03 00:07:0127
1ninkear m7 7430u 16gb 512gb162026-08-03 00:07:0129
1villach9812026-08-03 00:07:0128
1mini-pc amd 16gb ram 512 mb172026-08-03 00:07:0128
1asus proart p16 h7606wx-se008x342026-08-03 00:07:0127
1rattenfalle testsieger182026-08-03 00:07:0126
1rika interno422026-08-03 00:07:0128
1raid blau2612026-08-03 00:07:0128
1bosch multitool gop 300112026-08-03 00:07:0129
165e77nq hisense122026-08-03 00:07:0129
165e77nq132026-08-03 00:07:0126
1kärcher premium universal schlauchkupplung112026-08-03 00:07:0129
1ai-w5.1-b872026-08-03 00:07:0129
1foting gartenpumpe 1100 w92026-08-03 00:07:0129
157560-02fa092026-08-03 00:07:0124
1ledergürtel koppel3112026-08-03 00:07:0126
1samsonite securipak 14 182026-08-03 00:07:0128
1jbl pronovo pleco wafer m1042026-08-03 00:07:0128
1jbl pronovo pleco wafer m 1000232026-08-03 00:07:0127
1couchtisch vermonta192026-08-03 00:07:0126
1gartenabfallsack 85l292026-08-03 00:07:0136
1gartenabfall wagen82026-08-03 00:07:0136
1humsienk 150ah732026-08-03 00:07:0126
1wf1000xm6902026-08-03 00:07:0127
1ersatzakku hp 800049-001112026-08-03 00:07:0129
1tetrapro energy - 500 ml182026-08-03 00:07:0129
1since roberto82026-08-03 00:07:0129
115k-sg05lp31202026-08-03 00:07:0127
1poco m8 12gb pro532026-08-03 00:07:0125
1waterdrop mojito152026-08-03 00:07:0128
1samsung a27 5g 256 gb1222026-08-03 00:07:0129
1gakago spaltkeil102026-08-03 00:07:0129
1anker zolo a168582026-08-03 00:07:0129
1xgody n6 pro 4k252026-08-03 00:07:0128
1continental allseasoncontact 2 185 65 r15 88h752026-08-03 00:07:0128
1laminat m25132026-08-03 00:07:0129
1bosch pro gra18v2-46sp142026-08-03 00:07:0129
1puma future 8 match10762026-08-03 00:07:0129
1ulrich kramer1362026-08-03 00:07:0127
1be86u792026-08-03 00:07:0128
1seilfett dose1722026-08-03 00:07:0129
15m typ 2 ladekabel4262026-08-03 00:07:0128
1langzeitfett weiß442026-08-03 00:07:0129
1holzduft1702026-08-03 00:07:0128
1rolf ulrich kramer712026-08-03 00:07:0128
1solido 1 43 nissan2952026-08-03 00:07:0128
1rolf-ulrich kramer702026-08-03 00:07:0129
1nirvana ein psychogalaktisches abenteuer132026-08-03 00:07:0128
1klima-drehmomentschlüssel132026-08-03 00:07:0126
1kinetic sports sicherheitsnetz für bungee safety192026-08-03 00:07:0126
1haba alu-carry transportwagen92026-08-03 00:07:0129
1echelon lime sportarmband-tasche92026-08-03 00:07:0129
1poe-öl352026-08-03 00:07:0128
1powerwalker snmp karte162026-08-03 00:07:0127
1ai 395 1281432026-08-03 00:07:0129
1govee tv backlight 3 pro162026-08-03 00:07:0129
1kondensatschlauch 16mm 25192026-08-03 00:07:0129
1ryobi rhv18592026-08-03 00:07:0128
1bomi merle flat 149102026-08-03 00:07:0129
1kondensatschlauch 16mm1762026-08-03 00:07:0129
1t3 pro 75162026-08-03 00:07:0129
1lego 910047632026-08-04 00:07:0129
1buderus kältemittelleitung202026-08-03 00:07:0123
1kältemittelleitung doppelrohr 1 4 3 8 isoliert162026-08-03 00:07:0127
1mizuno running schuhe 39372026-08-03 00:07:0128
1grohe vitalioflex metal 22103000162026-08-03 00:07:0129
1samsung side-by-side rs70f rs70f66kbtef142026-08-03 00:07:0129
1aktobis silber162026-08-04 00:07:0129
1einhell akku-rasenkantenschneider ge-le 18 190 li-solo 18 v152026-08-04 00:07:0127
15715162436387 danfoss192026-08-04 00:07:0127
1fadenalgen stopp unique koi 5000132026-08-04 00:07:0127
1samsung galaxy plus chromebook652026-08-04 00:07:0129
1aussenborder langschaft 6ps172026-08-04 00:07:0129
1atopicontrol creme 75 ml752026-08-04 00:07:0129
108344632026-08-04 00:07:0128
1tsm-455neg9r.25112026-08-04 00:07:0128
1eaton usv 3p ellipse 550 din212026-08-04 00:07:0128
1original hp 937 multipack 6c400ne302026-08-04 00:07:0129
1kartuschenpresse - pkpa 20-li a192026-08-04 00:07:0129
1pkpa 20-li a2322026-08-04 00:07:0127
1teleskop-masturbator182026-08-04 00:07:0129
1agfeo st22 up0372026-08-04 00:07:0127
1fenster 90x40 kipp562026-08-04 00:07:0128
1polarys twinair262026-08-04 00:07:0128
1clarins after shave lotion242026-08-04 00:07:0127
1nivea 81243132026-08-04 00:07:0129
1ohne katze ist alles doof tasse202026-08-04 00:07:0129
1ohne katze ist alles doof1602026-08-04 00:07:0128
1tasse katze6452026-08-04 00:07:0127
1tasse spruch katze neu1912026-08-04 00:07:0128
1holz spruch katze neu1432026-08-04 00:07:0127
1holzschild katze neu1872026-08-04 00:07:0129
1tasse dosenöffner552026-08-04 00:07:0129
15b10w13973332026-08-04 00:07:0128
1katzen haben personal2572026-08-04 00:07:0127
1schild katzen haben personal812026-08-04 00:07:0128
1tatara masamune razor502026-08-04 00:07:0128
1schild neu katzen haben personal192026-08-04 00:07:0129
1dometic 407145147102026-08-04 00:07:0127
1holz neu katzen haben personal82026-08-04 00:07:0128
1rtx 6000 pro 96gb1532026-08-04 00:07:0128
1kopp kombo steckdosenbürste82026-08-04 00:07:0128
1kesser xxl briefkasten352026-08-04 00:07:0128
1kombi-planenhaken272026-08-04 00:07:0128
1anker erweiterung bp27001292026-08-04 00:07:0128
1hill s prescription diet r d katze132026-08-04 00:07:0128
1laufband senioren752026-08-04 00:07:0129
1ranstadt1832026-08-04 00:07:0128
1zendure 2400 ac plus512026-08-04 00:07:0128
1samsung galaxy s26 256 gb cobalt violet dual sim962026-08-04 00:07:0128
1selbstaufblasende campingmatte2692026-08-04 00:07:0127
1osprey tempest velocity 20l172026-08-04 00:07:0129
1ducati tankpad corse582026-08-04 00:07:0129
1robo clean osmo222026-08-04 00:07:0126
1omron m3 comfort afib312026-08-04 00:07:0128
1samsung galaxy tab s10 lite silber1092026-08-04 00:07:0128
1pzn 2020330882026-08-04 00:07:0127
1yamaha p-143262026-08-04 00:07:0128
1abb fi-schalter typ b 40232026-08-04 00:07:0128
120kg sonnenblumenkerne schwarz1022026-08-04 00:07:0128
1wiederaufladbaren aa-akkus 4er-pack102026-08-04 00:07:0128
1reolink magicam342026-08-04 00:07:0128
1abb fehlerstromschutzschalter ls212026-08-04 00:07:0128
1schutzhülle für ampelschirme bis 350 cm242026-08-04 00:07:0126
1lambdasonde bosch 0 258 007 057542026-08-04 00:07:0129
anzahl 208 xml 207


Preisvergleich
Wichtige Information zu den Preisangaben: Alle Preise verstehen sich inklusive der gesetzlichen Mehrwertsteuer und gegebebenfalls zuzüglich Versandkosten. Zum Zeitpunkt des Kaufes ist der aktuell auf der Händlerseite angegebene Preis maßgeblich. Bitte beachten Sie, dass aus technischen Gründen zeitweise Abweichungen, des Preises, der Lieferbarkeit und der Versandkosten entstehen können.

Affiliate-Offenlegung: Wenn Sie auf dieser Website auf Links zu verschiedenen Händlern klicken und einen Kauf tätigen, kann dies dazu führen, dass diese Website eine Provision erhält. Zu den Partnerprogrammen und Partnerschaften gehört unter anderem das eBay Partner Network. Als Amazon-Partner verdienen wir an qualifizierten Verkäufen.

Diese Website verwendet Cookies und Dienste von Drittanbietern. Durch die Nutzung dieser Website erklären Sie sich damit einverstanden, dass wir Cookies verwenden und Daten an Drittanbieter weitergeben. Insbesondere geben Sie durch das Klicken auf externe Links Ihr Einverständnis, dass anonyme Affiliate-Tracking-Cookies verwendet werden.

Meta-Preisvergleich - Ihre intelligente Shopping-Plattform

Funktionen:
Preisvergleich - Produktvergleich - Shopbewertung - Gutscheine - Produktbilder

Themen:
Buch Preisvergleich - Musik Preisvergleich - Film Preisvergleich - Spiele Computerspiele - Medikamente - Ärzte - Optik und Kontaktlinsen - Krankenversicherung - Preisvergleich Reisen - Kreuzfahrt Preisvergleich - Flüge Preisvergleich - Mietwagen - Hotel Preisvergleich - Ferienhaus Mieten - Stromtarife - Versicherungen - Geldanlage - Finanzierung - Auto - Immobilien - Handy-Tarife - Internetzugang - Geschenke - Singlebörsen - KI-Chatbot

Erklärungen:
Preisvergleich Übersicht / Marktübersicht - Liste der Preisvergleich Quellen - Benutzerdefinierte Preisvergleich Quellen - Erklärungen zum Meta-Preisvergleich

Sitemaps:
1 - 2 - 3 - 4 - 5 - 6 - 7 - 8 - 9 - 10 - 11 - 12 - 13 - 14 - 15 - 16 - 17 - 18 - 19 - 20 - 21 - 22 - 23 - 24 - 25 - 26 - 27 - 28 - 29 - 30 - 31 - 32 - 33 - 34 - 35 - 36 - 37 - 38 - 39 - 40 - 41 - 42 - 43 - 44 - 45 - 46 - 47 - 48 - 49 - 50 - 51 - 52 - 53 - 54 - 55 - 56 - 57 - 58 - 59 - 60 - 61 - 62 - 63 - 64 - 65 - 66 - 67 - 68 - 69 - 70 - 71 - 72 - 73 - 74 - 75 - 76 - 77 - 78 - 79 - 80 - 81 - 82 - 83 - 84 - 85 - 86 - 87 - 88 - 89 - 90 - 91 - 92 - 93 - 94 - 95 - 96 - 97 - 98 - 99 - 100 -
Impressum / Datenschutzerklärung     Presse / Links / Logos    
Copyright © 2003-2026 MetaMind GmbH